4XCWZ LLBG-LLHZ

Flight info

Callsign 4XCWZ
Flight time 0h -4m
Altitude 1200
Route PARDS GNYAM
Aircraft C172/L-SD/C

Departure

Time 2026-04-22 18:18
Airport Ben Gurion International Airport (LLBG)

Arrival

Time 2026-04-22 18:14
Airport Herzliya Airport (LLHZ)
Time Latitude Longitude Altitude Speed Heading
2026-04-22 18:13 32.00723 34.88566 115 ft 28 kts 122°
2026-04-22 18:13 32.00601 34.88799 115 ft 38 kts 122°
2026-04-22 18:13 32.00560 34.88984 115 ft 21 kts 32°
2026-04-22 18:13 32.00670 34.89055 115 ft 16 kts 29°
2026-04-22 18:14 32.00752 34.89107 115 ft 12 kts 27°
2026-04-22 18:14 32.00845 34.89170 115 ft 22 kts 32°
2026-04-22 18:14 32.01014 34.89277 115 ft 34 kts 28°
2026-04-22 18:14 32.01220 34.89410 115 ft 34 kts 28°
2026-04-22 18:15 32.01426 34.89542 115 ft 33 kts 28°
2026-04-22 18:15 32.01609 34.89659 114 ft 24 kts 28°
2026-04-22 18:15 32.01639 34.89678 114 ft 0 kts 28°
2026-04-22 18:17 32.01668 34.89697 114 ft 13 kts 28°
2026-04-22 18:17 32.01788 34.89766 113 ft 15 kts 15°
2026-04-22 18:17 32.01834 34.89662 112 ft 28 kts 260°
2026-04-22 18:18 32.01767 34.89228 116 ft 76 kts 269°
2026-04-22 18:18 32.01755 34.88629 345 ft 72 kts 296°
2026-04-22 18:18 32.02081 34.88185 580 ft 72 kts 336°
2026-04-22 18:18 32.02578 34.88084 867 ft 70 kts
2026-04-22 18:19 32.03103 34.88065 1118 ft 71 kts 359°
2026-04-22 18:19 32.03659 34.88028 1197 ft 90 kts 358°
2026-04-22 18:19 32.04288 34.87888 1184 ft 94 kts 344°
2026-04-22 18:19 32.04897 34.87597 1213 ft 96 kts 339°
2026-04-22 18:20 32.05506 34.87241 1197 ft 100 kts 337°
2026-04-22 18:20 32.06109 34.86861 1230 ft 100 kts 335°
2026-04-22 18:20 32.06720 34.86455 1247 ft 100 kts 338°
2026-04-22 18:20 32.07356 34.86108 1255 ft 102 kts 340°
2026-04-22 18:21 32.07996 34.85760 1211 ft 100 kts 338°
2026-04-22 18:21 32.08618 34.85419 1215 ft 99 kts 339°
2026-04-22 18:21 32.09269 34.85102 1207 ft 101 kts 346°
2026-04-22 18:21 32.09958 34.85111 1242 ft 99 kts 15°
2026-04-22 18:22 32.10613 34.85379 1233 ft 101 kts 23°
2026-04-22 18:22 32.11230 34.85733 1213 ft 97 kts 27°
2026-04-22 18:22 32.11830 34.86140 1188 ft 100 kts 33°
2026-04-22 18:22 32.12397 34.86574 1230 ft 97 kts 35°
2026-04-22 18:23 32.12902 34.87120 1221 ft 100 kts 47°
2026-04-22 18:23 32.13344 34.87740 1234 ft 100 kts 44°
2026-04-22 18:23 32.13869 34.88289 1163 ft 101 kts 38°
2026-04-22 18:24 32.15109 34.88859 1249 ft 100 kts 359°
2026-04-22 18:24 32.15648 34.88350 1212 ft 112 kts 300°
2026-04-22 18:24 32.16337 34.86742 1210 ft 108 kts 311°
2026-04-22 18:25 32.16783 34.86051 1252 ft 106 kts 309°
2026-04-22 18:25 32.17134 34.85285 1233 ft 111 kts 296°
2026-04-22 18:25 32.17386 34.84417 1190 ft 107 kts 292°
2026-04-22 18:26 32.17695 34.83042 1279 ft 97 kts 310°
2026-04-22 18:26 32.18235 34.82954 1027 ft 87 kts 33°
2026-04-22 18:26 32.18671 34.83479 776 ft 94 kts 44°
2026-04-22 18:26 32.19035 34.84127 853 ft 100 kts 66°
2026-04-22 18:27 32.18966 34.84918 881 ft 95 kts 104°
2026-04-22 18:27 32.18441 34.85332 779 ft 98 kts 185°
2026-04-22 18:27 32.17813 34.85138 624 ft 90 kts 220°
2026-04-22 18:27 32.17704 34.84517 353 ft 83 kts 297°
2026-04-22 18:28 32.17901 34.83887 154 ft 79 kts 296°
2026-04-22 18:28 32.18088 34.83278 247 ft 80 kts 298°
2026-04-22 18:28 32.18343 34.82720 485 ft 77 kts 329°
2026-04-22 18:28 32.18908 34.82693 551 ft 93 kts 18°
2026-04-22 18:29 32.19483 34.83086 594 ft 107 kts 62°
2026-04-22 18:29 32.19359 34.83881 841 ft 93 kts 103°
2026-04-22 18:29 32.19098 34.84612 857 ft 100 kts 107°
2026-04-22 18:29 32.18725 34.85290 841 ft 101 kts 149°
2026-04-22 18:30 32.18075 34.85255 721 ft 88 kts 197°
2026-04-22 18:30 32.17774 34.84315 223 ft 72 kts 296°
2026-04-22 18:30 32.17933 34.83783 120 ft 59 kts 292°
2026-04-22 18:31 32.18030 34.83458 104 ft 24 kts 293°
2026-04-22 18:31 32.18041 34.83329 105 ft 8 kts 217°
2026-04-22 18:31 32.18045 34.83287 104 ft 0 kts 289°
2026-04-22 18:32 32.18048 34.83278 104 ft 7 kts 291°
2026-04-22 18:32 32.18065 34.83220 102 ft 7 kts 291°
2026-04-22 18:32 32.18081 34.83163 101 ft 7 kts 289°
2026-04-22 18:32 32.18099 34.83106 100 ft 10 kts 289°
2026-04-22 18:33 32.18153 34.82969 97 ft 24 kts 290°
2026-04-22 18:33 32.18196 34.82817 97 ft 13 kts 266°
2026-04-22 18:33 32.18167 34.82790 96 ft 0 kts 117°